Location: ????????
(55.3939°N, 37.4780°E)
Time: 18:08:01
(UTC+00:00)

Cosmos 1862 - Pass Details

Date: 14 April 2026
Orbit: 465 x 478 km, 82.5° (Epoch: 16 May)

Event Time Altitude Azimuth Distance (km) Brightness Sun altitude
Rises 20:20:52 0° 343° (NNW) 2,552 8.2 -23.4°
Reaches altitude 10° 20:23:02 10° 337° (NNW) 1,665 6.9 -23.5°
Enters shadow 20:26:07 42° 285° (WNW) 697 4.0 -23.6°
